| time (UTC) | temp F | wind direction | speed MPH | gust MPH | rain 1hr in | rain 24hr in | rain mn in | humidity % | barometer mb |
| 20260507025124 | 73 | 227 | 5.0 | 6.0 | 0.00 | 0.01 | 0.01 | 89 | 1017.1 |
| 20260507024622 | 74 | 238 | 2.0 | 4.0 | 0.00 | 0.01 | 0.01 | 89 | 1016.8 |
| 20260507024119 | 74 | 227 | 5.0 | 8.0 | 0.00 | 0.01 | 0.01 | 88 | 1016.9 |
| 20260507023614 | 73 | 238 | 5.0 | 11.0 | 0.00 | 0.01 | 0.01 | 89 | 1016.2 |
| 20260507023112 | 73 | 239 | 2.0 | 5.0 | 0.00 | 0.01 | 0.01 | 89 | 1016.4 |
| 20260507022609 | 73 | 266 | 4.0 | 9.0 | 0.00 | 0.01 | 0.01 | 88 | 1016.4 |
| 20260507022104 | 73 | 215 | 3.0 | 9.0 | 0.00 | 0.01 | 0.01 | 88 | 1016.7 |
| 20260507021601 | 73 | 288 | 1.0 | 11.0 | 0.00 | 0.01 | 0.01 | 89 | 1016.5 |
| 20260507021056 | 73 | 244 | 4.0 | 14.0 | 0.00 | 0.01 | 0.01 | 89 | 1016.8 |
| 20260507020555 | 73 | 258 | 4.0 | 6.0 | 0.00 | 0.01 | 0.01 | 89 | 1017.0 |
| 20260507020051 | 73 | 267 | 2.0 | 3.0 | 0.00 | 0.01 | 0.01 | 89 | 1017.2 |
| 20260507015550 | 73 | 227 | 2.0 | 8.0 | 0.00 | 0.01 | 0.01 | 89 | 1016.9 |
| 20260507015047 | 73 | 263 | 3.0 | 7.0 | 0.00 | 0.01 | 0.01 | 89 | 1017.0 |
| 20260507014543 | 73 | 233 | 3.0 | 4.0 | 0.00 | 0.01 | 0.01 | 89 | 1017.4 |
| 20260507014039 | 73 | 308 | 2.0 | 4.0 | 0.00 | 0.01 | 0.01 | 89 | 1017.4 |
| 20260507013536 | 73 | 221 | 1.0 | 5.0 | 0.00 | 0.01 | 0.01 | 89 | 1017.2 |
| 20260507013033 | 73 | 240 | 5.0 | 7.0 | 0.00 | 0.01 | 0.01 | 89 | 1017.1 |
| 20260507012530 | 73 | 216 | 2.0 | 5.0 | 0.00 | 0.01 | 0.01 | 89 | 1017.0 |
| 20260507012026 | 73 | 217 | 5.0 | 8.0 | 0.00 | 0.01 | 0.01 | 89 | 1017.3 |
| 20260507011524 | 73 | 254 | 6.0 | 11.0 | 0.00 | 0.01 | 0.01 | 89 | 1017.3 |
| 20260507011020 | 73 | 253 | 4.0 | 7.0 | 0.00 | 0.01 | 0.01 | 89 | 1017.3 |
| 20260507010514 | 73 | 239 | 4.0 | 12.0 | 0.00 | 0.01 | 0.01 | 89 | 1017.2 |
| 20260507010011 | 73 | 257 | 3.0 | 5.0 | 0.00 | 0.01 | 0.01 | 89 | 1017.5 |
| 20260507005509 | 73 | 235 | 5.0 | 10.0 | 0.00 | 0.01 | 0.01 | 89 | 1017.3 |
| 20260507005005 | 73 | 213 | 5.0 | 9.0 | 0.00 | 0.01 | 0.01 | 89 | 1017.1 |
| 20260507004502 | 73 | 282 | 2.0 | 8.0 | 0.00 | 0.01 | 0.01 | 88 | 1017.2 |
| 20260507003959 | 73 | 241 | 4.0 | 5.0 | 0.00 | 0.01 | 0.01 | 88 | 1017.2 |
| 20260507003454 | 73 | 233 | 8.0 | 8.0 | 0.00 | 0.01 | 0.01 | 88 | 1017.1 |
| 20260507002949 | 73 | 248 | 3.0 | 8.0 | 0.00 | 0.01 | 0.01 | 88 | 1017.2 |
| 20260507002447 | 73 | 314 | 2.0 | 4.0 | 0.00 | 0.01 | 0.01 | 88 | 1017.1 |
| 20260507001943 | 73 | 238 | 4.0 | 8.0 | 0.00 | 0.01 | 0.01 | 87 | 1017.0 |
| 20260507001439 | 73 | 224 | 6.0 | 10.0 | 0.00 | 0.01 | 0.01 | 87 | 1017.1 |
| 20260507000937 | 73 | 221 | 5.0 | 10.0 | 0.00 | 0.01 | 0.01 | 87 | 1017.3 |
| 20260507000435 | 73 | 218 | 10.0 | 11.0 | 0.00 | 0.01 | 0.01 | 87 | 1017.1 |
| 20260506235928 | 73 | 224 | 2.0 | 6.0 | 0.00 | 0.01 | 0.01 | 87 | 1017.4 |
| 20260506235426 | 73 | 217 | 5.0 | 11.0 | 0.00 | 0.01 | 0.01 | 86 | 1017.2 |
| 20260506234921 | 74 | 231 | 7.0 | 12.0 | 0.00 | 0.01 | 0.01 | 86 | 1017.3 |
| 20260506234420 | 74 | 236 | 3.0 | 6.0 | 0.00 | 0.01 | 0.01 | 86 | 1017.2 |
| 20260506233917 | 74 | 240 | 6.0 | 9.0 | 0.00 | 0.01 | 0.01 | 85 | 1017.1 |
| 20260506233413 | 74 | 245 | 4.0 | 11.0 | 0.00 | 0.01 | 0.01 | 84 | 1017.2 |
| 20260506232910 | 74 | 218 | 8.0 | 11.0 | 0.00 | 0.01 | 0.01 | 84 | 1017.0 |
| 20260506232406 | 74 | 241 | 5.0 | 10.0 | 0.00 | 0.01 | 0.01 | 83 | 1017.3 |
| 20260506231902 | 74 | 241 | 3.0 | 6.0 | 0.00 | 0.01 | 0.01 | 83 | 1017.4 |
| 20260506231400 | 74 | 220 | 5.0 | 8.0 | 0.00 | 0.01 | 0.01 | 82 | 1017.4 |
| 20260506230857 | 74 | 239 | 4.0 | 7.0 | 0.00 | 0.01 | 0.01 | 82 | 1017.5 |
| 20260506230353 | 74 | 251 | 4.0 | 7.0 | 0.00 | 0.01 | 0.01 | 82 | 1017.4 |
| 20260506225849 | 74 | 229 | 4.0 | 8.0 | 0.00 | 0.01 | 0.01 | 82 | 1017.2 |
| 20260506225347 | 74 | 256 | 4.0 | 10.0 | 0.00 | 0.01 | 0.01 | 81 | 1017.3 |
| 20260506224839 | 75 | 211 | 4.0 | 6.0 | 0.00 | 0.01 | 0.01 | 82 | 1017.4 |
| 20260506224336 | 75 | 293 | 3.0 | 8.0 | 0.00 | 0.01 | 0.01 | 82 | 1017.4 |
| 20260506223832 | 75 | 256 | 4.0 | 9.0 | 0.00 | 0.01 | 0.01 | 82 | 1017.3 |
| 20260506223327 | 75 | 241 | 4.0 | 13.0 | 0.00 | 0.01 | 0.01 | 81 | 1017.1 |
| 20260506222825 | 75 | 263 | 2.0 | 12.0 | 0.00 | 0.01 | 0.01 | 80 | 1017.1 |
| 20260506222320 | 75 | 219 | 2.0 | 6.0 | 0.00 | 0.01 | 0.01 | 80 | 1017.1 |
| 20260506221818 | 76 | 250 | 5.0 | 10.0 | 0.00 | 0.01 | 0.01 | 79 | 1017.2 |
| 20260506221315 | 75 | 233 | 7.0 | 12.0 | 0.00 | 0.01 | 0.01 | 79 | 1017.1 |
| 20260506220814 | 76 | 205 | 11.0 | 13.0 | 0.00 | 0.01 | 0.01 | 79 | 1017.1 |
| 20260506220313 | 76 | 230 | 9.0 | 14.0 | 0.00 | 0.01 | 0.01 | 78 | 1016.9 |
| 20260506215810 | 76 | 203 | 9.0 | 15.0 | 0.00 | 0.01 | 0.01 | 79 | 1017.0 |
| 20260506215306 | 76 | 214 | 9.0 | 15.0 | 0.00 | 0.01 | 0.01 | 79 | 1017.3 |
| 20260506214802 | 76 | 217 | 9.0 | 11.0 | 0.00 | 0.01 | 0.01 | 78 | 1017.2 |
| 20260506214259 | 76 | 216 | 8.0 | 11.0 | 0.00 | 0.01 | 0.01 | 79 | 1017.3 |
| 20260506213758 | 76 | 221 | 7.0 | 9.0 | 0.00 | 0.01 | 0.01 | 79 | 1017.4 |
| 20260506213254 | 77 | 230 | 10.0 | 11.0 | 0.00 | 0.01 | 0.01 | 76 | 1017.4 |
| 20260506212752 | 77 | 220 | 10.0 | 15.0 | 0.00 | 0.01 | 0.01 | 77 | 1017.3 |
| 20260506212247 | 77 | 245 | 5.0 | 10.0 | 0.00 | 0.01 | 0.01 | 77 | 1017.3 |
| 20260506211742 | 77 | 213 | 7.0 | 13.0 | 0.00 | 0.01 | 0.01 | 77 | 1017.4 |
| 20260506211239 | 77 | 246 | 7.0 | 12.0 | 0.00 | 0.01 | 0.01 | 76 | 1017.2 |
| 20260506210736 | 77 | 241 | 5.0 | 16.0 | 0.00 | 0.01 | 0.01 | 76 | 1017.3 |
| 20260506210233 | 77 | 249 | 6.0 | 12.0 | 0.00 | 0.01 | 0.01 | 75 | 1017.4 |
| 20260506205731 | 77 | 240 | 14.0 | 16.0 | 0.00 | 0.01 | 0.01 | 75 | 1017.5 |
| 20260506205226 | 77 | 225 | 8.0 | 12.0 | 0.00 | 0.01 | 0.01 | 75 | 1017.6 |
| 20260506204723 | 77 | 241 | 8.0 | 15.0 | 0.00 | 0.01 | 0.01 | 75 | 1017.5 |
| 20260506204220 | 77 | 244 | 6.0 | 15.0 | 0.00 | 0.01 | 0.01 | 76 | 1017.4 |
| 20260506203718 | 78 | 273 | 6.0 | 17.0 | 0.00 | 0.01 | 0.01 | 75 | 1017.4 |
| 20260506203215 | 78 | 261 | 6.0 | 14.0 | 0.00 | 0.01 | 0.01 | 73 | 1017.5 |
| 20260506202713 | 78 | 225 | 12.0 | 17.0 | 0.00 | 0.01 | 0.01 | 71 | 1017.5 |
| 20260506202209 | 78 | 233 | 7.0 | 17.0 | 0.00 | 0.01 | 0.01 | 73 | 1017.7 |
| 20260506201706 | 78 | 223 | 12.0 | 14.0 | 0.00 | 0.01 | 0.01 | 74 | 1017.7 |
| 20260506201202 | 78 | 219 | 11.0 | 14.0 | 0.00 | 0.01 | 0.01 | 72 | 1017.6 |
| 20260506200659 | 78 | 290 | 4.0 | 10.0 | 0.00 | 0.01 | 0.01 | 72 | 1017.7 |
| 20260506200156 | 78 | 216 | 6.0 | 12.0 | 0.00 | 0.01 | 0.01 | 74 | 1017.7 |
| 20260506195653 | 78 | 227 | 6.0 | 14.0 | 0.00 | 0.01 | 0.01 | 75 | 1018.0 |
| 20260506195149 | 78 | 215 | 9.0 | 13.0 | 0.00 | 0.01 | 0.01 | 74 | 1017.9 |
| 20260506194647 | 78 | 220 | 7.0 | 14.0 | 0.00 | 0.01 | 0.01 | 73 | 1017.9 |
| 20260506194142 | 78 | 212 | 11.0 | 15.0 | 0.00 | 0.01 | 0.01 | 73 | 1017.8 |
| 20260506193641 | 78 | 232 | 10.0 | 15.0 | 0.00 | 0.01 | 0.01 | 74 | 1018.0 |
| 20260506193137 | 78 | 217 | 10.0 | 16.0 | 0.00 | 0.01 | 0.01 | 73 | 1017.9 |
| 20260506192634 | 78 | 233 | 8.0 | 15.0 | 0.00 | 0.01 | 0.01 | 73 | 1018.0 |
| 20260506192130 | 78 | 226 | 10.0 | 14.0 | 0.00 | 0.01 | 0.01 | 73 | 1018.2 |
| 20260506191627 | 78 | 234 | 7.0 | 14.0 | 0.00 | 0.01 | 0.01 | 74 | 1018.1 |
| 20260506191123 | 78 | 221 | 11.0 | 12.0 | 0.00 | 0.01 | 0.01 | 72 | 1018.3 |
| 20260506190621 | 79 | 219 | 9.0 | 13.0 | 0.00 | 0.01 | 0.01 | 72 | 1018.4 |
| 20260506190118 | 79 | 219 | 9.0 | 15.0 | 0.00 | 0.01 | 0.01 | 71 | 1018.4 |
| 20260506185615 | 79 | 276 | 3.0 | 12.0 | 0.00 | 0.01 | 0.01 | 72 | 1018.5 |
| 20260506185110 | 78 | 215 | 11.0 | 11.0 | 0.00 | 0.01 | 0.01 | 73 | 1018.9 |
| 20260506184609 | 79 | 225 | 8.0 | 11.0 | 0.00 | 0.01 | 0.01 | 72 | 1018.9 |
| 20260506184106 | 78 | 260 | 7.0 | 17.0 | 0.00 | 0.01 | 0.01 | 74 | 1019.2 |
| 20260506183602 | 78 | 234 | 5.0 | 10.0 | 0.00 | 0.01 | 0.01 | 75 | 1019.0 |
| 20260506183058 | 78 | 232 | 7.0 | 12.0 | 0.00 | 0.01 | 0.01 | 75 | 1019.1 |
| 20260506182555 | 78 | 229 | 6.0 | 12.0 | 0.00 | 0.01 | 0.01 | 73 | 1019.1 |
| 20260506182052 | 78 | 214 | 3.0 | 13.0 | 0.00 | 0.01 | 0.01 | 75 | 1019.0 |
| 20260506181551 | 78 | 219 | 11.0 | 15.0 | 0.00 | 0.01 | 0.01 | 74 | 1019.0 |
| 20260506181047 | 79 | 221 | 12.0 | 12.0 | 0.00 | 0.01 | 0.01 | 74 | 1019.0 |
| 20260506180543 | 78 | 239 | 5.0 | 12.0 | 0.00 | 0.01 | 0.01 | 75 | 1018.9 |
| 20260506180040 | 79 | 231 | 9.0 | 12.0 | 0.00 | 0.01 | 0.01 | 73 | 1019.2 |
| 20260506175537 | 78 | 208 | 7.0 | 12.0 | 0.00 | 0.01 | 0.01 | 75 | 1019.3 |
| 20260506175033 | 77 | 218 | 6.0 | 16.0 | 0.00 | 0.01 | 0.01 | 75 | 1019.5 |
| 20260506174532 | 77 | 238 | 6.0 | 12.0 | 0.00 | 0.01 | 0.01 | 76 | 1019.7 |
| 20260506174027 | 77 | 238 | 5.0 | 12.0 | 0.00 | 0.01 | 0.01 | 76 | 1019.7 |
| 20260506173526 | 77 | 218 | 8.0 | 12.0 | 0.00 | 0.01 | 0.01 | 75 | 1019.6 |
| 20260506173022 | 77 | 231 | 9.0 | 14.0 | 0.00 | 0.01 | 0.01 | 74 | 1019.5 |
| 20260506172520 | 78 | 222 | 9.0 | 11.0 | 0.00 | 0.01 | 0.01 | 74 | 1019.5 |
| 20260506172016 | 78 | 227 | 8.0 | 10.0 | 0.00 | 0.01 | 0.01 | 72 | 1019.6 |
| 20260506171513 | 78 | 258 | 5.0 | 15.0 | 0.00 | 0.01 | 0.01 | 73 | 1019.7 |
| 20260506171010 | 79 | 222 | 11.0 | 14.0 | 0.00 | 0.01 | 0.01 | 73 | 1019.6 |
| 20260506170508 | 79 | 223 | 6.0 | 10.0 | 0.00 | 0.01 | 0.01 | 72 | 1019.6 |
| 20260506170006 | 78 | 243 | 9.0 | 15.0 | 0.00 | 0.01 | 0.01 | 71 | 1019.6 |
| 20260506165504 | 78 | 235 | 9.0 | 12.0 | 0.00 | 0.01 | 0.01 | 72 | 1019.4 |
| 20260506164959 | 78 | 265 | 3.0 | 13.0 | 0.00 | 0.01 | 0.01 | 72 | 1019.7 |
| 20260506164456 | 78 | 252 | 4.0 | 13.0 | 0.00 | 0.01 | 0.01 | 71 | 1019.7 |
| 20260506163954 | 78 | 235 | 10.0 | 12.0 | 0.00 | 0.01 | 0.01 | 71 | 1019.6 |
| 20260506163449 | 78 | 237 | 6.0 | 11.0 | 0.00 | 0.01 | 0.01 | 71 | 1019.7 |
| 20260506162944 | 78 | 235 | 9.0 | 15.0 | 0.00 | 0.01 | 0.01 | 72 | 1019.7 |
| 20260506162442 | 77 | 245 | 5.0 | 13.0 | 0.00 | 0.01 | 0.01 | 73 | 1019.9 |
| 20260506161939 | 77 | 212 | 7.0 | 15.0 | 0.00 | 0.01 | 0.01 | 75 | 1019.9 |
| 20260506161437 | 77 | 244 | 5.0 | 10.0 | 0.00 | 0.01 | 0.01 | 74 | 1020.0 |
| 20260506160934 | 77 | 228 | 11.0 | 13.0 | 0.00 | 0.01 | 0.01 | 74 | 1020.2 |
| 20260506160432 | 78 | 227 | 7.0 | 10.0 | 0.00 | 0.01 | 0.01 | 73 | 1020.0 |
| 20260506155929 | 78 | 225 | 9.0 | 11.0 | 0.00 | 0.01 | 0.01 | 71 | 1020.0 |
| 20260506155427 | 77 | 220 | 5.0 | 11.0 | 0.00 | 0.01 | 0.01 | 72 | 1020.0 |
| 20260506153548 | 77 | 241 | 8.0 | 12.0 | 0.00 | 0.01 | 0.01 | 70 | 1020.1 |
| 20260506153045 | 78 | 206 | 9.0 | 15.0 | 0.00 | 0.01 | 0.01 | 71 | 1020.1 |
| 20260506152542 | 77 | 233 | 9.0 | 14.0 | 0.00 | 0.01 | 0.01 | 72 | 1020.2 |
| 20260506152040 | 78 | 242 | 7.0 | 12.0 | 0.00 | 0.01 | 0.01 | 72 | 1020.2 |
| 20260506151538 | 77 | 215 | 12.0 | 13.0 | 0.00 | 0.01 | 0.01 | 73 | 1020.2 |
| 20260506151035 | 77 | 236 | 8.0 | 11.0 | 0.00 | 0.01 | 0.01 | 73 | 1020.1 |
| 20260506150531 | 77 | 267 | 3.0 | 10.0 | 0.00 | 0.01 | 0.01 | 74 | 1020.1 |
| 20260506150028 | 77 | 200 | 11.0 | 14.0 | 0.00 | 0.01 | 0.01 | 72 | 1020.1 |
| 20260506145525 | 77 | 235 | 6.0 | 12.0 | 0.00 | 0.01 | 0.01 | 73 | 1019.9 |
| 20260506145023 | 77 | 208 | 9.0 | 11.0 | 0.00 | 0.01 | 0.01 | 71 | 1019.7 |
| 20260506144519 | 77 | 224 | 6.0 | 9.0 | 0.00 | 0.01 | 0.01 | 71 | 1019.7 |
| 20260506144017 | 77 | 248 | 9.0 | 10.0 | 0.00 | 0.01 | 0.01 | 72 | 1019.7 |
| 20260506143514 | 77 | 229 | 8.0 | 10.0 | 0.00 | 0.01 | 0.01 | 72 | 1019.7 |
| 20260506143013 | 76 | 250 | 4.0 | 9.0 | 0.00 | 0.01 | 0.01 | 73 | 1019.8 |
| 20260506142510 | 76 | 233 | 4.0 | 10.0 | 0.00 | 0.01 | 0.01 | 74 | 1019.8 |
| 20260506142008 | 76 | 201 | 9.0 | 12.0 | 0.00 | 0.01 | 0.01 | 74 | 1019.6 |
| 20260506141505 | 76 | 212 | 7.0 | 10.0 | 0.00 | 0.01 | 0.01 | 74 | 1020.0 |
| 20260506141003 | 76 | 245 | 4.0 | 11.0 | 0.00 | 0.01 | 0.01 | 74 | 1019.9 |
| 20260506140500 | 76 | 254 | 5.0 | 10.0 | 0.00 | 0.01 | 0.01 | 74 | 1019.8 |
| 20260506135957 | 76 | 225 | 9.0 | 15.0 | 0.00 | 0.01 | 0.01 | 74 | 1019.5 |
| 20260506135454 | 76 | 244 | 4.0 | 10.0 | 0.00 | 0.01 | 0.01 | 76 | 1019.5 |
| 20260506134950 | 75 | 238 | 9.0 | 11.0 | 0.00 | 0.01 | 0.01 | 74 | 1019.5 |
| 20260506134446 | 76 | 220 | 5.0 | 12.0 | 0.00 | 0.01 | 0.01 | 73 | 1019.6 |
| 20260506133943 | 76 | 231 | 7.0 | 13.0 | 0.00 | 0.01 | 0.01 | 73 | 1019.6 |
| 20260506133440 | 75 | 305 | 2.0 | 11.0 | 0.00 | 0.01 | 0.01 | 75 | 1019.6 |
| 20260506132937 | 75 | 241 | 5.0 | 9.0 | 0.00 | 0.01 | 0.01 | 74 | 1019.5 |
| 20260506132434 | 75 | 211 | 9.0 | 11.0 | 0.00 | 0.01 | 0.01 | 76 | 1019.5 |
| 20260506131932 | 74 | 246 | 5.0 | 9.0 | 0.00 | 0.01 | 0.01 | 77 | 1019.3 |
| 20260506131428 | 74 | 237 | 5.0 | 11.0 | 0.00 | 0.01 | 0.01 | 77 | 1019.3 |
| 20260506130925 | 74 | 236 | 6.0 | 15.0 | 0.00 | 0.01 | 0.01 | 78 | 1019.4 |
| 20260506130421 | 73 | 212 | 6.0 | 12.0 | 0.00 | 0.01 | 0.01 | 79 | 1019.5 |
| 20260506125920 | 73 | 240 | 5.0 | 13.0 | 0.00 | 0.01 | 0.01 | 79 | 1019.2 |
| 20260506125417 | 73 | 236 | 4.0 | 9.0 | 0.00 | 0.01 | 0.01 | 79 | 1019.5 |
| 20260506124916 | 73 | 231 | 6.0 | 11.0 | 0.00 | 0.01 | 0.01 | 80 | 1019.2 |
| 20260506124413 | 73 | 235 | 6.0 | 7.0 | 0.00 | 0.01 | 0.01 | 79 | 1019.1 |
| 20260506123910 | 73 | 260 | 5.0 | 7.0 | 0.00 | 0.01 | 0.01 | 79 | 1019.3 |
| 20260506123408 | 72 | 225 | 8.0 | 8.0 | 0.00 | 0.01 | 0.01 | 80 | 1019.4 |
| 20260506122905 | 72 | 236 | 5.0 | 9.0 | 0.00 | 0.01 | 0.01 | 80 | 1019.3 |
| 20260506122402 | 72 | 263 | 4.0 | 6.0 | 0.00 | 0.01 | 0.01 | 81 | 1019.3 |
| 20260506121900 | 71 | 302 | 2.0 | 8.0 | 0.00 | 0.01 | 0.01 | 81 | 1019.3 |
| 20260506121357 | 71 | 209 | 5.0 | 6.0 | 0.00 | 0.01 | 0.01 | 82 | 1019.3 |
| 20260506120854 | 71 | 234 | 5.0 | 6.0 | 0.00 | 0.01 | 0.01 | 84 | 1019.1 |
| 20260506120352 | 70 | 225 | 5.0 | 8.0 | 0.00 | 0.01 | 0.01 | 85 | 1019.1 |
| 20260506115849 | 70 | 271 | 2.0 | 9.0 | 0.02 | 0.01 | 0.01 | 86 | 1019.1 |
| 20260506115347 | 69 | 236 | 5.0 | 6.0 | 0.02 | 0.01 | 0.01 | 88 | 1019.2 |
| 20260506114845 | 68 | 254 | 2.0 | 4.0 | 0.00 | 0.00 | 0.00 | 91 | 1019.1 |
| 20260506114342 | 68 | 259 | 2.0 | 3.0 | 0.00 | 0.00 | 0.00 | 94 | 1018.8 |
| 20260506113841 | 67 | 244 | 3.0 | 3.0 | 0.00 | 0.00 | 0.00 | 96 | 1018.8 |
| 20260506113338 | 66 | 242 | 0.0 | 2.0 | 0.00 | 0.00 | 0.00 | 97 | 1018.8 |
| 20260506112834 | 65 | 247 | 2.0 | 2.0 | 0.00 | 0.00 | 0.00 | 97 | 1018.7 |
| 20260506112332 | 64 | 331 | 2.0 | 2.0 | 0.00 | 0.00 | 0.00 | 96 | 1018.7 |
| 20260506111829 | 64 | 343 | 2.0 | 2.0 | 0.00 | 0.00 | 0.00 | 96 | 1018.9 |
| 20260506111327 | 63 | 344 | 2.0 | 2.0 | 0.00 | 0.00 | 0.00 | 96 | 1018.8 |
| 20260506110824 | 63 | 340 | 2.0 | 2.0 | 0.00 | 0.00 | 0.00 | 96 | 1018.7 |
| 20260506110321 | 63 | 336 | 2.0 | 2.0 | 0.02 | 0.00 | 0.00 | 95 | 1018.7 |
| 20260506105818 | 63 | 336 | 2.0 | 2.0 | 0.02 | 0.00 | 0.00 | 95 | 1018.8 |
| 20260506105314 | 62 | 326 | 2.0 | 2.0 | 0.00 | 0.00 | 0.00 | 95 | 1018.9 |
| 20260506104812 | 63 | 340 | 2.0 | 2.0 | 0.00 | 0.00 | 0.00 | 95 | 1018.7 |
| 20260506104310 | 63 | 357 | 2.0 | 2.0 | 0.00 | 0.00 | 0.00 | 95 | 1018.7 |
| 20260506103807 | 63 | 344 | 2.0 | 2.0 | 0.00 | 0.00 | 0.00 | 94 | 1018.7 |
| 20260506103305 | 63 | 344 | 3.0 | 3.0 | 0.00 | 0.00 | 0.00 | 94 | 1018.8 |
| 20260506102802 | 63 | 353 | 2.0 | 3.0 | 0.00 | 0.00 | 0.00 | 94 | 1018.6 |
| 20260506102300 | 63 | 355 | 2.0 | 2.0 | 0.00 | 0.00 | 0.00 | 94 | 1018.5 |
| 20260506101757 | 63 | 343 | 2.0 | 3.0 | 0.00 | 0.00 | 0.00 | 94 | 1018.5 |
| 20260506101253 | 63 | 339 | 2.0 | 3.0 | 0.00 | 0.00 | 0.00 | 94 | 1018.5 |
| 20260506100751 | 63 | 346 | 2.0 | 3.0 | 0.00 | 0.00 | 0.00 | 94 | 1018.6 |
| 20260506100249 | 63 | 335 | 2.0 | 2.0 | 0.00 | 0.00 | 0.00 | 93 | 1018.4 |
| 20260506095747 | 63 | 348 | 2.0 | 3.0 | 0.00 | 0.00 | 0.00 | 93 | 1018.4 |
| 20260506095244 | 63 | 351 | 3.0 | 3.0 | 0.00 | 0.00 | 0.00 | 93 | 1018.6 |
| 20260506094740 | 63 | 355 | 2.0 | 3.0 | 0.00 | 0.00 | 0.00 | 93 | 1018.6 |
| 20260506094239 | 64 | 346 | 2.0 | 2.0 | 0.00 | 0.00 | 0.00 | 92 | 1018.6 |
| 20260506093737 | 64 | 353 | 2.0 | 3.0 | 0.00 | 0.00 | 0.00 | 92 | 1018.4 |
| 20260506093234 | 64 | 351 | 2.0 | 3.0 | 0.00 | 0.00 | 0.00 | 92 | 1018.3 |
| 20260506092731 | 64 | 351 | 2.0 | 3.0 | 0.00 | 0.00 | 0.00 | 91 | 1018.5 |
| 20260506092229 | 64 | 335 | 1.0 | 2.0 | 0.00 | 0.00 | 0.00 | 91 | 1018.3 |
| 20260506091726 | 64 | 334 | 2.0 | 3.0 | 0.00 | 0.00 | 0.00 | 91 | 1018.5 |
| 20260506091224 | 65 | 355 | 2.0 | 3.0 | 0.00 | 0.00 | 0.00 | 90 | 1018.5 |
| 20260506090721 | 65 | 358 | 2.0 | 2.0 | 0.00 | 0.00 | 0.00 | 90 | 1018.6 |
| 20260506090218 | 65 | 6 | 2.0 | 3.0 | 0.00 | 0.00 | 0.00 | 90 | 1018.5 |
| 20260506085715 | 65 | 348 | 2.0 | 2.0 | 0.00 | 0.00 | 0.00 | 89 | 1018.5 |
| 20260506085211 | 66 | 346 | 2.0 | 2.0 | 0.00 | 0.00 | 0.00 | 89 | 1018.6 |
| 20260506084708 | 66 | 349 | 3.0 | 3.0 | 0.00 | 0.00 | 0.00 | 89 | 1018.7 |
| 20260506084204 | 66 | 342 | 2.0 | 2.0 | 0.00 | 0.00 | 0.00 | 88 | 1018.6 |
| 20260506083701 | 66 | 336 | 1.0 | 2.0 | 0.00 | 0.00 | 0.00 | 88 | 1018.6 |
| 20260506083159 | 66 | 304 | 0.0 | 2.0 | 0.00 | 0.00 | 0.00 | 87 | 1018.5 |
| 20260506082656 | 67 | 320 | 1.0 | 2.0 | 0.00 | 0.00 | 0.00 | 87 | 1018.5 |
| 20260506082156 | 67 | 328 | 2.0 | 2.0 | 0.00 | 0.00 | 0.00 | 87 | 1018.5 |
| 20260506081655 | 67 | 338 | 2.0 | 3.0 | 0.00 | 0.00 | 0.00 | 86 | 1018.5 |
| 20260506081152 | 67 | 301 | 2.0 | 2.0 | 0.00 | 0.00 | 0.00 | 86 | 1018.6 |
| 20260506080650 | 68 | 291 | 2.0 | 2.0 | 0.00 | 0.00 | 0.00 | 86 | 1018.3 |
| 20260506080146 | 68 | 306 | 0.0 | 3.0 | 0.00 | 0.00 | 0.00 | 86 | 1018.3 |
| 20260506073130 | 68 | 254 | 0.0 | 3.0 | 0.00 | 0.00 | 0.00 | 84 | 1018.2 |
| 20260506072627 | 69 | 285 | 2.0 | 4.0 | 0.00 | 0.00 | 0.00 | 83 | 1018.1 |
| 20260506072125 | 69 | 265 | 2.0 | 6.0 | 0.00 | 0.00 | 0.00 | 83 | 1018.4 |
| 20260506071622 | 69 | 237 | 4.0 | 6.0 | 0.00 | 0.00 | 0.00 | 83 | 1018.3 |
| 20260506071120 | 69 | 264 | 2.0 | 5.0 | 0.00 | 0.00 | 0.00 | 83 | 1018.4 |
| 20260506070616 | 69 | 269 | 2.0 | 8.0 | 0.00 | 0.00 | 0.00 | 83 | 1018.3 |
| 20260506070114 | 69 | 214 | 4.0 | 6.0 | 0.00 | 0.00 | 0.00 | 83 | 1018.4 |
| 20260506062050 | 69 | 285 | 2.0 | 6.0 | 0.00 | 0.00 | 0.00 | 82 | 1018.7 |
| 20260506061546 | 69 | 242 | 4.0 | 4.0 | 0.00 | 0.00 | 0.00 | 81 | 1018.5 |
| 20260506061044 | 69 | 240 | 4.0 | 4.0 | 0.00 | 0.00 | 0.00 | 81 | 1018.6 |
| 20260506060543 | 69 | 269 | 2.0 | 4.0 | 0.00 | 0.00 | 0.00 | 80 | 1018.4 |
| 20260506051011 | 69 | 220 | 4.0 | 5.0 | 0.00 | 0.00 | 0.00 | 77 | 1019.3 |
| 20260506050509 | 69 | 236 | 4.0 | 5.0 | 0.00 | 0.00 | 0.00 | 77 | 1019.5 |
| 20260506044959 | 70 | 236 | 7.0 | 8.0 | 0.00 | 0.00 | 0.00 | 76 | 1019.4 |
| 20260506044458 | 70 | 271 | 2.0 | 8.0 | 0.00 | 0.00 | 0.00 | 76 | 1019.7 |
| 20260506043954 | 70 | 273 | 2.0 | 6.0 | 0.00 | 0.00 | 0.00 | 76 | 1019.4 |
| 20260506043451 | 70 | 251 | 2.0 | 4.0 | 0.00 | 0.00 | 0.00 | 76 | 1019.5 |
| 20260506042949 | 70 | 258 | 4.0 | 4.0 | 0.00 | 0.00 | 0.00 | 75 | 1019.4 |
| 20260506042448 | 70 | 257 | 3.0 | 4.0 | 0.00 | 0.00 | 0.00 | 75 | 1019.4 |
| 20260506041946 | 70 | 261 | 2.0 | 5.0 | 0.00 | 0.00 | 0.00 | 75 | 1019.5 |
| 20260506041444 | 70 | 259 | 3.0 | 6.0 | 0.00 | 0.00 | 0.00 | 75 | 1019.4 |
| 20260506040941 | 70 | 267 | 2.0 | 4.0 | 0.00 | 0.00 | 0.00 | 76 | 1019.4 |
| 20260506040438 | 70 | 240 | 3.0 | 4.0 | 0.00 | 0.00 | 0.00 | 76 | 1019.6 |
| 20260506035934 | 69 | 251 | 2.0 | 8.0 | 0.00 | 0.00 | 0.00 | 76 | 1019.7 |
| 20260506035432 | 69 | 230 | 3.0 | 5.0 | 0.00 | 0.00 | 0.00 | 76 | 1019.4 |
| 20260506034928 | 69 | 278 | 2.0 | 2.0 | 0.00 | 0.00 | 0.00 | 76 | 1019.6 |
| 20260506034425 | 69 | 297 | 1.0 | 4.0 | 0.00 | 0.00 | 0.00 | 75 | 1019.3 |
| 20260506033922 | 69 | 269 | 2.0 | 6.0 | 0.00 | 0.00 | 0.00 | 75 | 1019.3 |
| 20260506033420 | 69 | 254 | 3.0 | 6.0 | 0.00 | 0.00 | 0.00 | 75 | 1019.5 |
| 20260506032917 | 70 | 310 | 2.0 | 3.0 | 0.00 | 0.00 | 0.00 | 74 | 1019.3 |
| 20260506032414 | 70 | 238 | 3.0 | 4.0 | 0.00 | 0.00 | 0.00 | 74 | 1019.6 |
| 20260506031910 | 69 | 254 | 2.0 | 5.0 | 0.00 | 0.00 | 0.00 | 72 | 1019.5 |
| 20260506031408 | 70 | 245 | 2.0 | 3.0 | 0.00 | 0.00 | 0.00 | 72 | 1019.3 |
| 20260506030905 | 70 | 236 | 1.0 | 3.0 | 0.00 | 0.00 | 0.00 | 72 | 1019.4 |
| 20260506030403 | 69 | 230 | 0.0 | 2.0 | 0.00 | 0.00 | 0.00 | 70 | 1019.5 |
| 20260506025859 | 69 | 232 | 2.0 | 3.0 | 0.00 | 0.00 | 0.00 | 71 | 1019.6 |
| 20260506025356 | 69 | 267 | 2.0 | 5.0 | 0.00 | 0.00 | 0.00 | 69 | 1019.9 |